Palm Springs, CA

12:54 AM PDT on October 18, 2017 (GMT -0700)
Palm Springs International

Weather History for KPSP - February, 2014

Change the Weather History Date:

Saturday, February 8, 2014

  Actual Average Record
Temperature  
Mean Temperature 62 °F 59 °F  
Max Temperature 74 °F 71 °F 90 °F (1951)
Min Temperature 50 °F 47 °F 25 °F (1933)
Degree Days  
Heating Degree Days 3 6  
Month to date heating degree days 59 54  
Since 1 July heating degree days 410 681  
Cooling Degree Days 0 1  
Month to date cooling degree days 0 7  
Year to date cooling degree days 37 15  
Growing Degree Days 12 (Base 50)    
Moisture  
Dew Point 39 °F    
Average Humidity 44    
Maximum Humidity 63    
Minimum Humidity 25    
Precipitation  
Precipitation 0.00 in 0.03 in 2.30 in (1932)
Month to date precipitation 0.00 0.17  
Year to date precipitation 0.00 1.17  
Since 1 July precipitation 1.26  
Snow  
Snow 0.00 in - - ()
Month to date snowfall 0.0  
Year to date snowfall 0.0  
Snow Depth 0.00 in    
Sea Level Pressure  
Sea Level Pressure 30.14 in    
Wind  
Wind Speed 3 mph (SE)    
Max Wind Speed 9 mph    
Max Gust Speed 11 mph    
Visibility 10 miles    
Events      
T = Trace of Precipitation, MM = Missing Value Source: NWS Daily Summary

Daily Weather History Graph

Daily Weather History Graph

Search for Another Location

Airport or City:

Trip Planner

Search our weather history database for the weather conditions in past years. The results will help you decide how hot, cold, wet, or windy it might be!

Date:

Astronomy

Feb. 08, 2014 Rise Set
Actual Time 6:37 AM PST 5:23 PM PST
Civil Twilight 6:11 AM PST 5:49 PM PST
Nautical Twilight 5:41 AM PST 6:19 PM PST
Astronomical Twilight 5:12 AM PST 6:48 PM PST
Moon 12:25 PM PST (2/8) 1:49 AM PST (2/8)
Length of Visible Light 11h 38m
Length of Day
10h 46m
Waxing Gibbous, 69% of the Moon is Illuminated
Feb 8
Waxing Gibbous
Feb 14
Full
Feb 22
Last Quarter
Mar 1
New
Mar 8
First Quarter

Hourly Weather History & Observations

Time (PST) Temp. Dew Point Humidity Pressure Visibility Wind Dir Wind Speed Gust Speed Precip Events Conditions
12:53 AM 55.0 °F 41.0 °F 59% 30.10 in 10.0 mi NE 4.6 mph - N/A   Clear
1:53 AM 55.0 °F 41.0 °F 59% 30.10 in 10.0 mi Calm Calm - N/A   Clear
2:53 AM 52.0 °F 39.9 °F 63% 30.09 in 10.0 mi SW 3.5 mph - N/A   Clear
3:53 AM 52.0 °F 39.0 °F 61% 30.10 in 10.0 mi Calm Calm - N/A   Clear
4:53 AM 53.1 °F 39.0 °F 59% 30.12 in 10.0 mi WNW 4.6 mph - N/A   Clear
5:53 AM 52.0 °F 39.9 °F 63% 30.13 in 10.0 mi NNW 5.8 mph - N/A   Clear
6:53 AM 52.0 °F 37.9 °F 59% 30.15 in 10.0 mi Calm Calm - N/A   Mostly Cloudy
7:53 AM 54.0 °F 37.9 °F 55% 30.17 in 10.0 mi West 4.6 mph - N/A   Mostly Cloudy
8:53 AM 60.1 °F 39.9 °F 47% 30.20 in 10.0 mi South 4.6 mph - N/A   Scattered Clouds
9:53 AM 64.9 °F 39.0 °F 39% 30.22 in 10.0 mi Calm Calm - N/A   Clear
10:53 AM 66.9 °F 37.0 °F 33% 30.21 in 10.0 mi Variable 3.5 mph - N/A   Clear
11:53 AM 70.0 °F 37.0 °F 30% 30.19 in 10.0 mi East 6.9 mph - N/A   Scattered Clouds
12:53 PM 70.0 °F 37.0 °F 30% 30.15 in 10.0 mi East 6.9 mph - N/A   Scattered Clouds
1:53 PM 72.0 °F 37.0 °F 28% 30.13 in 10.0 mi SE 5.8 mph - N/A   Clear
2:53 PM 73.0 °F 36.0 °F 26% 30.11 in 10.0 mi Variable 3.5 mph - N/A   Scattered Clouds
3:53 PM 73.0 °F 36.0 °F 26% 30.11 in 10.0 mi ESE 6.9 mph - N/A   Clear
4:53 PM 71.1 °F 37.0 °F 29% 30.12 in 10.0 mi SE 5.8 mph - N/A   Clear
5:53 PM 69.1 °F 37.9 °F 32% 30.13 in 10.0 mi ESE 4.6 mph - N/A   Clear
6:53 PM 66.0 °F 39.0 °F 37% 30.14 in 10.0 mi NNE 3.5 mph - N/A   Clear
7:53 PM 64.0 °F 39.9 °F 41% 30.14 in 10.0 mi Calm Calm - N/A   Clear
8:53 PM 61.0 °F 41.0 °F 48% 30.13 in 10.0 mi Calm Calm - N/A   Clear
9:53 PM 60.1 °F 39.9 °F 47% 30.13 in 10.0 mi SSE 9.2 mph - N/A   Clear
10:53 PM 61.0 °F 37.9 °F 42% 30.14 in 10.0 mi WSW 3.5 mph - N/A   Clear
11:53 PM 59.0 °F 39.0 °F 48% 30.14 in 10.0 mi West 3.5 mph - N/A   Clear